Theta_e
316 318 321 322 320 319 321 323 326 325 323 322 321 320 323 322 322 321 320 322 325 325 327 327 327 327 327 325 325 328 331 331 330 334 339 339 337 338 339 336 336 335 336 334 332 328 325 326 325 324 321 320 321 317 312 313 312 310 317 325 330 332 333 333 333 333 331 330 328 326 323 321 319 319 318 318 321 315 311 314 316 318 320 321 322 322 321 319 315 311 311 311 311 313 316 318 323
315 317 319 319 319 319 322 323 325 325 321 319 319 320 322 322 322 320 319 323 324 324 326 326 325 325 324 324 324 327 333 332 329 337 339 337 338 338 337 336 335 335 335 334 331 327 324 326 326 323 322 321 321 318 312 313 312 312 316 323 329 331 332 332 333 333 331 330 328 326 324 321 321 321 317 317 322 320 316 318 319 319 318 319 322 320 317 317 315 312 311 311 310 310 311 311 314
315 316 317 319 320 320 322 324 323 322 320 318 319 321 321 321 322 322 322 323 323 325 327 327 325 324 324 324 324 328 333 333 330 335 337 336 338 337 336 337 337 337 335 333 330 326 324 325 326 324 322 321 321 318 313 313 313 312 315 320 327 330 332 332 332 332 332 331 328 326 323 320 320 320 317 317 321 322 322 323 322 320 318 316 318 317 314 315 314 312 312 312 311 311 311 311 311
315 316 318 321 324 323 323 325 324 322 320 318 318 321 322 323 324 324 324 324 324 326 327 327 326 325 326 325 325 331 334 334 331 332 336 336 336 336 337 338 339 338 336 334 330 327 324 325 326 324 322 321 321 318 313 313 313 312 313 316 323 328 331 332 332 332 332 331 329 326 322 319 317 319 319 319 320 323 326 325 323 323 321 317 316 319 317 317 316 313 314 313 313 313 312 313 313
315 316 319 323 326 325 324 326 326 323 320 318 318 321 322 324 325 324 324 324 325 327 327 327 326 323 325 327 328 331 333 335 331 331 336 336 335 336 337 338 339 338 337 336 333 327 324 325 325 323 322 321 321 319 315 313 314 313 312 313 319 326 330 330 331 331 331 331 329 326 323 319 315 316 319 319 318 322 325 323 324 326 325 321 318 322 321 319 319 315 315 315 316 315 315 315 315
316 318 319 322 325 324 325 325 324 323 320 319 320 320 323 324 324 324 324 325 325 326 326 327 326 323 326 328 330 333 335 335 333 335 337 336 335 335 337 337 337 338 338 338 335 328 324 325 324 322 322 322 321 320 316 314 314 314 313 313 317 322 326 329 330 330 331 331 329 326 323 319 315 315 315 315 315 318 320 321 325 327 327 324 319 322 323 319 318 316 316 316 317 317 316 316 317
318 322 321 322 323 323 326 324 323 322 319 320 320 320 323 324 323 323 323 323 324 324 325 326 324 326 328 326 329 333 336 335 335 336 334 334 334 334 336 336 337 338 339 338 335 328 324 325 323 322 323 322 321 320 318 315 314 315 313 313 316 320 324 328 329 330 330 329 326 323 319 316 315 315 312 312 315 320 321 321 325 327 326 324 318 317 320 317 316 317 317 318 318 318 318 318 318
319 324 323 323 324 323 325 325 324 322 319 319 319 321 323 323 323 323 322 322 322 323 324 326 324 325 326 327 331 330 333 337 334 333 331 331 332 332 336 336 336 338 339 337 333 328 324 325 322 321 323 322 321 320 318 316 315 316 315 313 315 319 322 326 328 329 327 324 321 317 314 313 313 313 312 311 314 323 326 322 322 323 322 320 316 315 318 318 317 316 317 319 319 320 320 319 319
319 324 323 323 327 324 324 324 324 320 318 318 318 321 322 323 322 322 322 322 321 322 323 323 324 323 324 330 332 329 332 337 333 331 330 329 329 331 335 335 336 338 338 336 333 327 324 324 321 320 323 323 322 321 319 317 316 316 317 315 314 315 317 321 324 324 322 318 315 313 311 311 311 311 312 310 311 319 324 322 320 321 320 317 315 316 318 318 316 316 317 318 319 320 321 321 321
320 323 323 323 326 324 322 323 323 320 319 319 318 320 322 322 321 322 321 321 320 321 323 322 323 322 324 331 333 332 332 333 331 331 330 328 328 330 334 335 335 337 337 335 333 328 324 323 321 320 322 323 322 321 320 318 317 316 317 318 316 314 314 316 317 318 316 313 311 310 309 309 309 309 311 310 310 315 318 321 322 321 319 316 315 315 316 315 314 315 316 318 319 320 321 322 322
323 322 322 324 324 322 321 322 323 320 319 318 318 320 321 322 321 322 321 321 320 322 323 321 322 320 325 332 336 335 330 331 331 329 330 328 328 331 334 335 335 337 336 334 334 329 324 323 321 319 322 323 322 321 322 319 318 317 316 318 319 318 316 315 315 315 314 313 312 310 309 308 308 308 311 310 310 314 318 320 321 318 315 314 314 314 315 314 314 315 316 317 319 321 321 322 323
324 323 323 325 324 324 323 322 322 320 319 318 319 319 320 322 321 322 321 321 320 322 322 320 322 319 323 331 335 334 328 331 332 328 329 329 329 332 335 334 335 337 335 334 334 330 324 322 320 319 322 323 321 321 322 321 319 318 317 316 318 318 319 318 317 316 315 314 314 313 311 309 308 308 310 310 308 311 317 318 317 315 314 313 314 315 315 315 314 315 315 317 319 321 322 322 323
324 326 324 324 324 325 324 323 323 321 321 319 319 319 320 321 321 323 320 320 320 321 321 319 321 318 325 333 334 333 328 332 334 330 329 328 329 333 335 334 334 336 335 335 334 330 325 322 320 320 323 323 322 320 321 322 320 319 319 317 317 317 318 318 318 317 316 315 314 314 313 311 309 308 309 308 308 309 314 317 317 315 314 313 314 315 315 315 314 314 314 316 318 320 321 322 322
323 325 325 326 326 325 324 322 322 321 320 319 319 319 320 321 321 322 320 320 319 320 321 319 320 319 325 332 334 333 331 333 333 330 330 328 329 332 334 334 333 334 334 335 333 329 326 323 321 320 323 324 323 321 321 321 321 320 320 319 318 318 317 316 316 316 316 315 315 314 315 313 310 308 307 307 307 310 315 317 318 316 315 314 314 314 314 314 314 314 314 314 316 318 320 321 322
322 322 326 328 326 325 323 323 322 321 320 320 319 319 320 320 320 321 319 319 319 320 320 319 319 319 324 328 332 334 331 330 331 330 329 328 329 332 334 334 333 334 333 334 333 329 327 325 323 321 322 326 325 323 322 321 321 321 321 321 320 319 319 317 315 314 314 314 314 314 315 315 313 308 306 307 306 310 317 318 318 318 317 317 316 316 315 314 314 314 314 314 314 316 319 320 321
319 321 326 326 325 324 323 323 322 320 320 320 318 319 320 319 320 320 318 318 318 319 319 319 318 321 328 330 329 332 330 327 328 328 329 329 329 332 333 332 333 334 331 333 333 330 329 328 327 325 322 326 328 325 324 322 321 322 322 322 321 321 320 319 318 315 315 314 314 314 314 315 315 311 307 306 306 311 316 318 318 319 319 319 319 319 318 316 315 314 314 314 314 315 316 318 320
317 320 326 325 323 323 322 322 321 319 320 319 318 319 319 318 319 318 317 318 318 318 318 319 319 320 328 333 330 329 328 326 326 327 331 331 329 331 332 331 333 333 330 331 332 330 331 331 330 332 325 325 330 330 329 326 322 322 322 323 323 322 322 321 320 318 317 316 314 315 314 314 315 315 311 307 306 310 315 318 318 319 319 320 320 320 321 320 318 316 315 314 315 315 315 316 318
319 324 325 323 324 323 322 321 319 320 320 318 319 319 319 318 318 317 317 318 318 317 318 319 319 319 322 330 334 331 325 324 325 326 330 330 327 329 330 331 333 333 330 331 333 330 331 332 331 334 330 325 331 333 332 331 327 324 322 322 323 323 323 323 322 321 319 318 317 315 314 314 314 315 315 311 308 308 314 317 318 318 319 319 319 319 320 321 321 320 317 316 314 314 315 315 316
320 325 324 324 325 321 320 319 318 319 319 318 319 319 318 318 317 317 317 317 317 316 317 318 319 319 318 325 331 331 326 324 325 325 326 326 325 327 329 331 333 332 330 330 333 332 330 331 331 334 332 327 330 333 333 333 331 328 325 323 323 323 323 323 323 322 321 320 320 319 317 315 314 314 315 315 313 310 311 315 318 318 318 318 318 319 319 320 321 321 321 319 316 315 316 316 316
319 322 324 325 322 319 318 318 318 318 318 318 318 318 318 318 317 317 317 316 316 315 316 317 318 320 317 319 323 326 326 325 324 324 324 324 325 327 327 329 331 332 330 329 331 332 329 330 330 332 333 329 329 332 332 332 332 331 328 326 325 324 323 323 324 323 323 322 321 323 322 318 316 315 314 315 316 315 312 313 316 318 319 319 318 318 319 320 320 321 321 321 320 319 319 317 316
318 320 323 323 320 319 318 317 317 318 318 318 318 318 318 318 317 316 316 316 316 315 316 316 317 319 317 317 317 320 323 324 324 325 324 323 327 329 328 327 329 331 331 330 330 330 329 329 330 331 333 331 329 330 331 331 331 331 329 328 328 326 323 323 323 324 324 323 322 324 324 320 318 317 316 315 315 317 316 314 314 315 318 319 319 319 320 320 320 321 321 321 321 321 321 319 317
318 320 320 319 318 318 317 316 317 318 318 318 318 318 318 317 317 316 316 316 317 316 316 316 316 318 317 316 316 316 318 320 323 324 325 324 325 328 330 330 329 331 332 331 330 330 329 329 330 330 331 331 330 328 329 329 329 331 330 328 328 327 324 323 323 323 324 324 323 325 324 322 321 319 317 317 315 315 316 317 316 316 316 317 318 319 320 320 320 320 320 321 321 321 321 320 318
318 320 319 317 318 317 316 316 316 317 318 318 318 317 317 316 316 316 316 316 317 317 317 317 317 317 317 316 315 316 316 316 319 321 322 322 324 325 330 333 331 331 331 330 330 330 329 329 330 330 330 331 330 329 329 328 328 329 330 329 328 327 325 324 324 324 324 324 324 325 324 323 324 322 320 319 317 316 315 315 316 316 317 317 317 317 318 318 319 320 319 320 320 321 321 320 320
318 319 318 316 317 315 315 315 315 316 317 317 317 317 317 316 316 316 316 316 316 317 317 316 317 318 318 317 315 315 315 315 315 316 319 320 322 323 329 334 333 330 330 329 330 330 328 328 329 329 330 330 330 329 329 329 329 329 329 329 329 328 326 325 325 325 325 324 324 324 324 324 324 324 323 321 320 319 317 316 316 316 316 317 317 317 317 317 317 318 319 319 319 320 320 320 320
317 317 317 316 316 315 314 314 314 315 316 316 317 317 316 316 316 316 316 316 316 317 316 316 317 319 320 319 316 315 315 315 314 316 320 323 326 326 330 335 335 334 332 330 329 330 328 326 329 329 328 329 329 329 329 329 329 329 329 329 329 328 327 326 325 325 325 326 325 324 324 324 325 325 324 323 322 322 320 319 318 317 316 316 316 317 318 317 317 317 317 318 319 319 320 320 320
317 317 317 316 315 314 314 314 314 314 315 315 316 316 316 315 315 316 316 316 317 316 316 315 315 319 321 319 317 315 315 315 315 315 317 323 329 330 330 333 336 336 335 333 331 330 328 326 328 328 327 327 327 328 328 328 328 328 328 328 329 328 327 326 326 325 325 326 326 325 324 324 324 325 325 325 324 323 323 321 320 320 319 318 317 317 317 318 318 317 317 318 318 319 319 320 320
317 316 316 316 315 314 315 314 314 314 315 315 316 316 316 315 315 316 317 316 316 316 316 315 314 316 319 320 318 315 314 315 315 315 316 320 327 329 327 329 334 337 337 335 333 331 329 326 325 327 327 326 326 327 327 328 327 327 327 327 327 326 327 327 326 326 325 326 326 327 326 325 324 325 325 326 325 324 324 323 322 323 322 321 320 319 318 318 318 318 318 318 318 318 319 319 320
316 316 316 315 315 315 315 315 314 315 315 314 316 316 315 315 315 316 316 317 317 316 316 315 315 314 316 318 320 318 315 314 314 315 316 317 320 322 322 322 327 334 336 335 333 331 328 324 323 325 326 326 327 326 326 327 327 326 326 325 324 324 325 326 326 327 325 325 326 327 327 327 325 325 325 326 326 325 325 324 323 323 323 323 323 322 321 320 318 319 319 319 319 319 319 319 320
316 316 316 315 315 315 315 315 314 315 315 314 315 316 316 316 316 316 316 317 316 316 315 315 315 315 315 316 320 320 317 317 317 315 315 315 315 316 317 317 318 323 329 331 331 330 328 322 320 322 324 325 326 325 325 326 326 326 325 324 323 322 323 323 324 325 325 325 326 327 327 328 327 326 326 326 326 326 325 325 324 324 324 324 324 324 323 322 320 320 320 319 319 319 320 320 320
316 315 316 316 316 315 316 315 315 315 315 314 315 316 318 317 316 316 316 317 316 315 315 315 316 315 316 316 318 319 318 319 319 315 314 315 314 314 315 315 315 316 318 321 324 325 324 321 318 319 320 321 323 324 324 324 325 325 325 323 322 321 321 321 321 322 322 323 324 326 326 327 328 328 328 327 327 327 327 326 325 325 324 324 324 324 323 323 322 322 322 321 321 321 321 321 322
315 315 316 318 317 316 316 315 314 315 315 314 315 316 318 317 316 316 316 316 315 315 315 315 316 316 316 317 318 319 317 317 317 315 314 314 314 314 314 315 315 315 315 316 318 318 319 319 316 315 316 317 318 320 323 323 323 324 324 324 322 320 320 320 321 320 320 320 320 323 325 326 328 328 329 329 329 328 328 327 327 326 325 325 325 324 323 323 323 323 323 323 322 322 323 323 323
314 315 316 318 318 316 316 315 314 315 315 313 315 316 317 316 315 315 315 315 315 315 315 315 316 317 316 316 318 321 320 317 315 314 314 314 314 314 314 314 314 314 315 314 314 315 316 316 315 314 314 314 315 316 319 322 322 322 322 323 322 319 319 319 319 319 320 319 318 319 322 325 327 328 328 329 329 329 328 329 328 327 327 327 327 326 325 324 324 324 323 323 323 323 323 323 324
315 316 317 317 316 316 316 315 314 315 315 314 314 316 316 316 314 314 315 315 315 315 315 316 316 317 317 317 318 320 320 318 316 314 314 314 314 314 314 314 314 314 314 314 314 314 315 315 315 314 313 313 314 314 316 318 320 321 321 321 321 320 319 318 317 319 318 317 316 316 318 322 325 328 328 329 329 329 328 328 329 329 328 329 329 328 327 326 326 325 325 325 325 325 324 324 325
315 315 317 318 315 316 316 315 315 315 315 315 314 315 316 316 314 314 315 314 314 314 315 315 316 316 316 317 317 318 318 317 316 314 314 314 314 314 314 314 313 314 314 314 314 314 314 314 314 314 314 314 314 314 315 316 317 319 320 321 321 320 319 317 318 318 317 315 315 314 316 319 323 326 327 328 329 329 328 328 328 328 328 328 328 328 328 327 327 327 326 326 325 325 325 325 325
316 316 315 318 317 316 316 316 315 315 315 316 316 315 315 315 315 314 314 314 314 314 314 315 316 316 316 316 316 316 316 316 315 314 314 314 314 314 314 314 314 314 314 314 314 314 314 314 314 314 314 314 314 314 314 315 316 317 319 320 321 321 319 317 318 317 316 315 314 314 314 316 319 323 325 327 328 329 329 328 327 327 327 327 327 327 326 326 326 326 325 324 323 323 324 325 325
316 316 315 317 318 316 316 316 315 315 315 315 316 315 314 315 315 315 314 314 314 314 314 315 315 315 316 316 316 315 315 315 314 314 314 314 314 314 314 315 314 314 314 314 314 314 314 314 314 314 314 314 314 314 314 314 315 316 317 317 319 320 319 316 316 316 316 315 315 314 314 314 315 318 321 324 326 326 326 326 325 324 324 325 326 326 325 324 325 325 325 324 323 323 323 324 324
316 316 314 317 319 315 315 316 314 314 315 315 316 316 315 316 316 316 315 314 314 314 315 315 316 316 316 316 316 315 315 315 314 314 314 314 314 314 314 315 315 315 314 314 314 314 314 314 314 314 314 314 314 314 314 314 314 315 315 316 316 317 317 316 315 315 315 315 314 314 314 314 314 315 317 319 322 322 322 323 323 322 322 322 323 323 324 325 325 325 325 325 325 323 322 323 324
316 316 315 317 318 316 315 315 313 314 315 316 316 316 315 315 316 316 316 315 314 315 315 315 316 316 316 316 316 316 315 315 315 315 315 314 314 314 314 314 314 315 315 314 315 314 314 314 314 315 314 314 314 314 314 314 314 314 314 315 315 316 317 317 316 316 316 316 315 315 315 315 315 315 316 316 317 318 321 323 324 324 324 324 323 322 323 324 325 325 325 325 324 323 322 323 323
316 317 317 316 318 316 314 315 314 313 314 316 317 317 317 317 317 316 315 315 315 316 316 316 316 316 316 316 316 316 316 316 316 315 315 315 314 314 314 314 314 314 315 315 315 314 315 314 314 314 314 314 314 314 314 314 314 314 314 315 316 316 317 317 318 317 317 317 316 316 316 315 315 315 316 316 315 318 322 323 324 325 325 326 325 323 323 325 325 326 327 327 326 324 323 322 323
317 316 316 317 318 316 316 315 314 314 314 316 317 317 317 316 317 317 315 316 316 316 317 316 316 316 316 316 316 317 316 316 317 315 315 315 315 315 315 315 315 314 315 314 315 315 315 315 315 314 314 314 314 314 315 314 315 316 316 317 317 318 319 319 320 319 318 317 316 316 316 316 316 317 317 316 315 317 321 322 324 325 325 326 325 322 323 324 324 325 325 326 325 324 323 324 324
318 319 319 320 320 318 318 316 314 314 315 316 316 317 319 317 315 316 315 316 316 316 317 317 317 317 316 317 316 317 317 317 317 317 316 316 315 315 315 315 315 315 315 315 314 315 315 315 315 314 314 314 314 314 314 314 316 316 317 319 320 320 320 320 320 319 318 316 316 316 316 316 317 319 318 316 315 317 319 320 321 325 327 328 325 324 325 324 323 322 322 322 323 324 324 324 325
317 321 321 319 319 318 318 317 316 316 317 318 316 318 324 322 316 316 316 315 316 315 316 316 317 318 317 317 317 316 317 318 318 318 318 317 317 316 316 315 315 316 315 316 315 315 315 315 315 315 314 314 314 314 314 314 315 316 316 318 319 319 319 318 317 317 317 317 316 316 317 318 319 320 319 317 316 317 319 319 320 324 328 327 325 325 327 327 325 323 323 323 323 324 325 325 326
314 321 323 319 321 322 321 321 319 317 318 318 316 317 322 323 318 318 319 318 318 317 316 316 317 318 317 318 317 317 317 318 318 319 319 318 318 317 317 316 316 316 315 315 316 315 315 316 315 315 315 315 315 315 314 314 315 315 315 316 316 316 316 316 316 316 316 317 318 317 317 318 319 319 319 318 317 317 319 320 320 323 324 324 324 325 325 326 325 324 326 326 324 324 324 324 325
317 323 325 321 322 325 324 323 320 318 318 317 317 318 319 321 320 318 319 319 318 318 318 318 316 316 317 316 316 316 316 316 316 317 318 317 318 317 316 316 316 315 315 315 315 315 315 315 316 315 315 315 315 315 315 315 315 315 315 315 315 315 315 315 316 316 316 317 318 318 318 317 318 319 319 318 318 317 318 320 321 322 323 323 323 322 321 322 322 324 326 328 327 326 325 323 323
321 323 323 322 323 325 323 321 319 320 320 319 320 318 317 320 321 318 319 319 318 319 318 318 316 315 316 316 316 316 315 316 315 315 315 315 315 315 315 315 315 315 315 315 315 315 315 315 315 315 315 315 315 315 315 315 315 315 315 315 315 315 315 315 316 316 316 317 317 318 319 318 318 319 318 318 318 318 318 319 320 321 322 323 323 321 318 319 322 325 326 328 328 327 325 323 321
319 320 323 324 324 323 321 320 320 319 320 322 322 319 317 320 321 317 318 318 318 319 317 317 316 316 316 316 316 316 315 314 314 313 313 313 313 314 314 313 313 314 315 315 315 315 315 314 314 314 314 314 314 315 315 315 315 315 315 315 315 315 315 315 316 315 316 316 317 317 318 318 317 318 318 318 318 318 317 318 319 320 322 324 325 322 319 319 322 324 325 326 324 323 322 321 321
318 320 322 322 321 321 319 320 319 317 321 323 322 320 317 318 322 319 317 318 318 317 317 318 316 316 317 316 316 315 314 314 313 313 313 313 313 313 313 313 313 314 314 314 314 314 314 313 313 313 313 313 313 313 314 315 315 315 315 315 315 315 315 315 315 315 315 315 316 316 317 317 318 318 318 318 318 319 319 319 321 322 322 323 323 321 319 320 321 322 322 322 321 320 320 320 320
319 322 321 319 319 319 318 318 318 318 322 319 317 320 319 317 319 318 316 316 316 315 317 318 318 317 316 316 315 314 314 314 314 315 314 314 314 314 314 313 313 313 313 313 313 313 313 313 313 313 313 313 313 313 313 313 314 315 315 315 315 314 314 314 314 314 315 315 316 316 317 317 318 318 318 317 318 318 319 319 320 320 319 319 319 318 319 319 319 320 320 319 319 319 319 320 319
321 321 318 320 321 317 318 319 319 320 319 314 313 317 318 317 316 315 316 315 315 315 316 318 318 317 317 317 316 314 314 315 316 315 314 313 313 313 313 313 313 313 313 313 313 313 313 313 313 313 313 313 313 312 312 312 313 313 314 314 314 313 313 314 314 314 315 315 316 316 317 317 317 317 317 318 318 317 317 317 317 317 317 317 317 316 317 317 317 316 316 316 317 318 318 318 318
319 318 317 322 321 316 317 319 320 319 317 314 314 315 318 318 316 316 316 314 314 314 313 316 316 315 316 316 315 313 313 316 317 315 314 314 313 313 312 312 312 312 312 312 312 313 314 314 314 313 313 313 313 312 312 312 312 312 312 313 313 313 313 314 313 314 315 315 316 316 317 317 317 317 317 317 317 316 316 316 316 316 316 315 315 315 315 315 315 315 314 314 315 315 315 315 315
319 320 319 320 320 319 318 319 322 323 317 313 313 316 320 320 317 318 316 313 314 314 313 313 313 313 314 313 312 312 314 316 317 316 315 315 315 315 314 314 313 313 312 313 313 314 314 314 314 314 313 313 313 312 312 311 311 311 312 312 312 313 313 313 314 314 315 315 316 316 316 316 316 316 316 316 316 316 315 315 315 315 315 315 315 315 314 314 314 314 314 314 314 314 314 313 313
318 320 320 320 321 325 321 316 319 322 318 316 316 319 322 320 317 318 315 314 314 312 312 312 312 313 312 312 313 313 315 316 317 317 316 316 317 316 316 316 316 315 315 315 315 315 315 314 314 314 314 313 312 312 311 311 311 311 311 312 312 313 313 313 314 315 316 316 316 316 316 316 315 315 315 315 315 315 315 315 315 315 315 314 314 314 314 314 314 314 314 314 313 313 313 313 313
317 318 319 319 320 325 322 315 314 315 316 318 318 319 319 316 317 318 316 317 315 312 312 311 311 313 312 312 314 314 315 316 317 316 316 316 316 316 317 316 317 316 316 316 315 315 315 314 314 314 314 313 312 312 311 311 311 311 312 312 312 313 314 314 315 316 316 316 316 316 316 315 315 315 315 315 315 315 315 315 315 314 314 314 314 314 314 313 313 313 313 313 313 313 313 313 313
318 319 318 317 316 320 319 315 315 315 314 317 319 319 317 314 317 320 315 316 317 315 313 311 311 313 312 312 314 315 315 315 316 316 316 316 316 316 317 317 317 317 316 316 316 315 315 314 314 314 314 313 313 313 312 312 312 312 313 313 313 314 315 315 316 316 316 316 316 315 315 315 315 315 315 315 315 315 315 314 315 314 314 314 314 313 313 313 313 313 313 313 313 313 313 313 313
315 317 316 317 317 318 316 314 317 319 315 317 321 319 317 316 316 317 315 315 318 317 314 313 314 313 311 313 316 315 314 315 316 316 316 316 316 316 317 316 316 317 316 317 316 316 316 315 315 315 314 314 314 314 314 314 314 314 314 315 315 316 316 316 316 316 316 316 315 315 315 315 315 315 314 315 315 314 314 314 314 314 314 314 314 313 313 313 313 312 312 312 312 312 312 312 312
314 314 314 317 318 319 319 316 318 322 317 316 320 319 321 323 318 316 316 316 316 317 317 316 313 312 312 315 317 315 313 315 316 316 316 316 316 316 316 316 316 317 316 317 317 316 316 316 316 316 316 315 315 315 315 315 315 315 315 316 316 316 316 316 316 315 315 315 315 315 315 315 315 315 314 314 314 314 314 314 314 314 314 313 313 313 313 312 312 312 312 312 311 311 311 311 311
314 315 314 315 315 316 319 318 319 321 318 316 317 316 322 324 318 316 315 316 319 319 321 319 313 313 315 316 316 314 313 315 315 315 316 316 316 316 316 316 316 316 316 316 316 316 316 316 316 316 316 316 316 316 316 316 316 316 316 316 316 316 315 315 315 315 315 315 315 315 315 315 315 314 314 314 314 314 314 314 314 314 314 313 313 312 312 311 311 311 311 311 311 311 311 310 311
316 315 314 314 315 315 318 319 319 317 316 318 316 316 323 322 316 317 316 317 320 318 318 318 313 313 315 316 315 313 314 315 314 314 314 314 316 316 315 316 315 316 316 316 316 316 316 316 316 316 316 316 316 316 316 316 315 315 315 315 315 315 315 315 315 315 315 315 315 315 315 315 314 314 314 314 314 314 314 314 314 313 313 312 312 311 311 311 311 311 311 310 310 310 310 309 309
Wind_Speed
7 7 6 6 6 6 7 4 4 3 2 4 2 3 2 5 6 6 6 5 5 6 8 10 10 7 4 3 8 14 14 8 3 2 5 13 19 15 15 16 14 13 11 12 10 9 9 9 10 9 9 10 11 12 13 12 12 12 14 15 14 13 11 10 10 9 11 12 13 15 15 15 14 13 13 13 13 14 15 14 14 15 15 15 15 15 15 16 16 16 16 15 15 14 13 12 11
6 7 5 3 4 4 6 3 3 2 3 4 2 5 4 4 5 7 6 5 8 7 8 10 7 7 6 6 7 10 14 13 11 15 17 20 20 15 17 16 13 13 11 11 10 9 9 9 10 9 9 9 11 12 13 12 12 13 13 15 14 12 11 10 10 9 10 11 12 14 14 14 14 13 12 13 13 14 15 14 14 15 15 15 15 16 15 16 16 16 16 16 15 15 15 14 12
6 5 4 1 3 5 6 3 2 4 3 2 4 5 5 4 4 8 8 11 15 11 10 9 6 4 4 5 6 8 9 12 16 23 22 19 19 16 17 17 13 11 11 11 10 10 9 9 9 9 9 9 11 12 13 12 12 12 12 14 14 12 11 10 9 8 9 10 10 12 14 14 13 12 11 13 14 15 15 15 15 15 15 16 16 16 16 15 15 16 16 16 16 16 16 16 15
7 7 7 3 4 4 4 2 3 4 3 1 4 4 5 7 7 10 13 17 16 11 10 8 5 3 5 4 7 10 10 11 14 20 21 17 17 18 18 17 13 11 10 10 9 10 9 9 9 9 8 9 10 11 12 12 12 12 11 12 13 12 11 10 9 8 8 8 10 12 13 14 14 12 11 12 14 14 15 14 15 15 15 16 16 16 16 15 15 16 16 16 16 16 17 17 17
8 8 8 5 2 2 2 2 3 3 2 1 3 4 5 10 10 10 13 15 13 10 9 8 3 3 5 7 6 6 9 11 13 17 20 16 15 20 18 15 14 13 10 9 9 10 10 9 9 9 8 9 10 11 12 12 12 12 11 11 12 12 11 10 9 8 7 7 9 11 12 13 14 13 11 12 13 13 12 13 15 15 14 15 15 16 15 15 16 16 16 16 17 16 17 17 17
6 5 6 4 3 3 2 2 4 2 3 3 4 3 7 11 11 13 13 13 10 7 7 6 2 5 6 7 8 9 9 9 13 17 18 18 17 21 21 15 13 13 11 9 9 10 10 9 9 9 8 9 9 10 11 12 12 12 11 11 12 12 11 10 8 8 7 5 7 9 10 11 12 13 11 11 13 13 11 13 15 14 12 13 14 15 14 15 15 15 16 16 17 16 17 17 16
5 3 4 3 3 2 2 4 5 1 3 4 4 3 8 13 14 15 12 9 5 4 5 4 4 6 7 7 9 11 11 10 14 16 16 20 21 22 22 16 13 13 11 10 9 10 10 10 8 8 8 8 9 10 11 11 11 12 11 11 12 11 11 10 8 8 6 4 6 7 8 9 10 11 11 11 13 14 11 12 14 11 10 10 11 13 13 14 14 15 15 16 16 16 16 16 15
7 4 4 3 2 2 2 5 4 2 1 3 5 4 11 15 15 14 8 8 5 6 6 4 4 2 4 8 7 8 13 11 14 16 14 22 24 23 23 16 14 15 12 10 8 11 11 10 8 8 9 8 9 9 10 10 11 12 12 12 12 10 10 10 9 7 5 4 5 6 7 8 9 10 10 10 12 13 11 9 10 9 8 8 10 11 13 14 14 15 15 16 16 16 16 15 14
7 5 3 3 2 3 3 5 3 4 3 3 5 5 13 16 14 12 7 8 8 9 10 7 4 2 6 12 10 8 12 10 13 15 16 23 25 23 22 16 15 15 13 10 8 11 11 10 8 8 9 8 8 8 9 10 10 11 11 12 11 10 9 9 8 6 4 4 5 6 7 7 8 8 9 9 10 10 9 8 9 10 9 10 12 13 14 14 14 14 14 15 15 15 15 15 14
6 7 3 2 3 3 3 5 2 5 5 5 5 6 12 13 13 13 8 8 8 9 11 8 3 3 9 13 10 8 10 11 12 15 18 22 24 22 21 16 15 15 13 10 9 11 11 10 8 8 9 8 8 8 9 9 9 10 10 11 10 10 9 8 7 6 4 5 6 6 7 8 8 8 8 9 9 8 9 9 10 11 12 12 13 13 14 14 13 13 13 14 14 14 14 14 13
4 7 4 1 3 3 5 4 3 5 5 6 6 7 8 9 11 12 9 9 9 10 9 8 3 4 8 11 9 7 10 13 11 17 20 21 22 22 20 17 15 14 13 12 10 11 12 10 8 8 9 8 9 9 8 8 9 9 10 10 10 10 10 10 9 8 7 7 7 8 9 10 10 9 9 8 7 8 9 10 10 11 11 12 13 13 13 13 13 13 12 12 13 14 13 13 13
3 5 3 1 4 4 4 3 5 6 6 5 5 7 8 9 7 8 9 9 10 11 9 8 4 6 6 8 9 8 10 14 14 18 21 20 22 23 19 17 16 14 13 13 11 12 12 11 9 9 9 9 9 9 9 8 9 8 9 9 9 9 9 9 9 9 8 8 8 9 10 10 11 10 8 8 7 8 9 10 10 11 11 11 12 13 13 13 13 12 12 11 12 13 12 12 12
4 3 2 2 5 2 1 1 6 6 4 5 6 9 10 9 6 6 9 9 9 8 8 9 5 5 4 9 11 10 12 16 17 19 21 20 22 23 19 17 18 15 14 12 11 12 12 11 10 9 9 9 8 8 8 8 9 8 8 8 8 8 8 8 8 8 8 8 8 8 9 10 10 9 8 8 8 8 9 10 11 11 11 11 11 12 13 13 13 12 12 11 11 12 12 11 11
6 6 2 3 5 3 1 2 5 4 3 5 10 12 11 9 8 7 8 8 6 5 9 10 6 4 5 9 11 13 16 19 20 21 22 19 20 23 18 17 17 15 16 13 11 12 12 12 10 9 9 9 8 8 8 8 8 8 8 7 7 8 8 7 7 7 7 7 8 8 9 9 9 9 8 8 8 8 9 10 10 11 11 11 11 11 12 12 12 12 12 11 11 11 10 10 10
8 9 4 2 4 3 0 2 4 5 2 5 11 16 11 8 8 5 4 5 5 8 13 10 6 2 2 4 10 18 19 20 23 24 22 19 19 21 17 18 18 15 17 15 12 12 13 12 11 10 10 9 8 7 7 7 7 8 8 7 7 7 8 7 7 6 6 7 7 7 8 8 8 8 7 7 8 8 9 9 10 10 10 10 10 11 11 12 12 12 12 11 11 10 9 8 9
8 7 3 2 3 2 1 0 3 4 3 5 12 17 10 6 8 4 5 8 7 10 10 6 5 3 5 7 11 20 20 20 24 24 21 19 19 21 18 19 20 16 17 17 14 14 13 13 12 11 10 9 8 8 7 7 7 7 7 8 7 6 7 7 7 6 6 7 6 6 7 7 8 8 7 7 7 8 8 8 9 9 9 9 9 9 10 10 11 11 10 10 10 9 8 7 7
7 3 2 3 4 3 3 3 3 4 5 7 13 16 8 5 8 5 4 7 6 8 7 3 6 5 6 11 14 16 18 21 24 25 22 20 20 22 19 19 20 16 18 19 15 15 14 13 12 11 11 10 9 8 8 7 7 7 6 7 7 6 6 6 6 6 6 6 6 5 6 6 7 7 7 6 7 8 8 8 8 7 7 8 8 8 8 9 8 9 9 8 8 8 7 7 6
4 1 2 4 4 4 5 4 5 7 7 7 13 16 10 6 8 6 4 4 4 6 7 6 6 6 7 12 15 15 16 20 24 26 25 23 22 22 21 20 20 18 19 20 16 17 17 15 13 12 12 11 11 9 8 8 7 7 6 6 6 6 6 6 6 5 5 5 5 5 5 7 7 7 7 6 6 7 7 7 7 6 6 5 6 6 6 6 6 6 6 6 6 6 6 6 6
5 2 2 4 3 2 4 7 6 7 10 10 13 14 10 9 11 9 5 6 7 6 7 9 7 7 9 12 15 15 15 19 23 26 26 25 22 22 22 21 20 18 19 21 20 18 18 18 15 14 13 13 12 11 10 9 9 8 7 7 7 7 6 6 6 5 5 4 4 4 6 6 6 7 6 5 5 5 6 6 6 5 5 4 3 3 4 4 4 4 4 4 4 4 4 5 4
7 5 2 4 2 4 9 13 10 10 16 13 12 12 8 10 13 11 7 8 10 8 9 13 12 11 12 13 14 14 16 19 22 25 26 24 22 21 22 22 21 19 19 21 21 19 18 19 17 15 14 14 14 13 12 10 10 9 8 8 8 8 7 7 6 6 5 5 3 3 5 4 4 6 4 4 4 4 4 4 4 4 4 3 2 2 2 2 2 3 3 3 2 2 2 3 3
5 6 2 3 1 3 9 12 10 11 16 14 13 11 6 10 11 10 8 6 7 10 14 15 16 16 15 16 14 14 18 21 23 24 25 24 23 21 20 21 20 19 19 19 21 20 19 19 19 18 16 16 17 16 14 12 11 11 10 10 9 10 9 9 7 6 6 5 4 3 5 3 3 4 3 3 3 3 3 3 3 3 3 2 2 1 1 0 1 1 3 3 2 3 3 3 3
3 6 2 6 6 4 6 9 10 10 13 14 14 9 7 9 7 10 10 5 3 8 14 15 16 18 16 17 16 15 18 22 24 25 25 25 25 23 19 18 17 18 19 18 20 20 20 20 19 20 19 18 18 18 16 15 14 13 12 10 10 10 10 10 9 8 6 5 5 3 4 4 3 4 3 2 2 3 4 4 4 4 3 3 3 2 2 1 1 1 2 4 4 3 3 3 4
3 7 3 7 7 4 4 6 10 9 10 12 10 9 10 10 6 10 12 7 4 5 10 12 13 15 16 17 17 16 17 21 24 25 25 25 25 24 21 19 19 19 20 20 19 18 19 19 19 20 20 19 19 19 18 17 17 15 14 12 12 12 11 11 10 9 8 6 7 5 4 5 4 4 4 3 2 2 3 4 4 4 4 4 4 4 3 3 4 3 3 4 4 4 4 4 4
5 4 2 5 7 6 3 5 8 7 8 8 8 9 10 8 5 8 13 10 4 3 6 10 9 11 15 17 16 15 14 17 21 23 23 23 24 24 22 20 20 20 21 22 21 20 19 18 18 19 20 20 20 20 19 18 18 17 16 14 14 15 13 12 11 10 9 8 8 8 7 7 6 5 5 4 3 3 3 3 4 4 5 4 5 6 5 5 5 5 5 5 5 5 5 5 5
8 3 2 4 6 5 4 5 7 7 6 6 7 7 7 7 3 5 13 12 7 6 4 8 8 9 13 15 15 15 14 15 18 21 23 23 22 23 23 20 18 19 21 21 22 22 21 19 19 19 19 20 20 20 20 19 18 18 18 17 16 17 16 13 12 12 11 10 9 10 9 9 8 7 6 6 5 5 4 4 4 5 6 6 6 6 6 6 7 7 7 6 6 6 7 7 7
7 4 5 6 6 5 5 5 5 5 3 6 6 3 3 3 1 4 14 14 11 11 8 9 9 11 13 14 14 15 15 16 17 19 22 23 23 24 25 23 20 19 20 20 21 22 22 21 21 22 20 19 19 20 20 20 18 18 18 18 17 18 17 15 14 14 14 11 10 11 10 10 10 9 9 8 8 7 6 6 6 6 6 7 6 7 7 7 8 8 8 8 8 8 8 8 8
3 8 9 7 6 5 5 5 6 4 3 6 4 3 2 1 1 4 11 14 13 13 12 12 11 11 14 14 15 15 15 17 17 18 20 23 25 25 26 26 25 21 20 21 22 23 24 23 22 23 22 20 19 20 20 20 19 18 18 18 18 18 17 17 16 16 16 13 12 12 12 11 12 11 11 11 10 10 9 8 8 8 8 8 7 8 8 8 9 9 9 9 9 9 10 10 9
4 11 9 6 5 5 5 5 7 4 3 7 2 3 3 2 2 6 10 15 16 15 13 14 14 12 13 14 15 15 16 16 17 20 21 23 25 25 26 27 27 25 23 23 22 22 23 23 23 23 24 22 21 21 20 20 20 19 19 19 18 17 17 17 18 18 18 15 14 15 14 13 13 14 13 13 13 12 11 10 10 10 10 9 9 9 9 9 10 10 10 10 10 11 11 11 11
5 8 4 4 4 3 5 4 8 5 2 8 3 3 1 2 8 17 14 15 16 16 14 13 15 15 14 14 15 16 17 17 18 21 21 21 22 23 23 24 25 26 26 24 22 22 22 22 22 22 24 24 24 23 21 20 21 20 20 19 18 18 17 17 18 19 19 17 16 17 15 15 15 15 15 16 15 14 14 13 13 12 12 12 11 11 10 10 11 12 11 11 12 12 12 12 12
5 5 1 4 2 2 7 6 7 4 3 9 4 1 4 7 17 22 16 15 16 16 15 14 15 16 16 16 16 17 18 18 20 21 20 21 20 20 21 21 22 23 25 25 24 24 23 22 22 21 22 23 24 24 23 22 21 21 20 20 19 19 18 17 18 19 19 18 17 18 17 16 17 17 17 18 17 16 16 15 15 14 14 14 13 12 12 12 13 13 13 12 13 14 13 14 14
4 3 3 3 2 3 6 7 8 4 3 9 5 1 5 5 10 16 16 15 15 15 15 15 15 16 18 18 18 19 19 20 21 21 20 20 20 18 18 20 21 22 23 25 25 24 24 24 23 22 21 21 21 23 24 23 22 21 21 20 20 20 19 18 18 19 19 19 18 18 18 18 18 18 18 19 19 18 18 17 17 16 17 16 15 14 14 14 14 14 14 14 14 15 15 15 16
2 3 3 3 3 3 2 5 9 4 3 9 5 2 6 2 4 12 15 15 13 14 14 15 15 15 17 19 20 20 21 21 21 21 20 20 21 20 19 19 20 21 22 23 23 24 24 24 24 23 21 20 20 20 22 23 22 22 21 20 21 20 20 19 19 19 20 20 20 19 19 19 20 19 20 20 20 20 19 19 18 17 18 17 16 16 16 16 16 15 15 14 14 15 15 16 17
3 4 3 4 4 3 1 2 5 4 4 7 5 3 4 2 4 9 12 13 13 13 13 15 16 15 16 18 20 22 21 21 22 23 22 21 21 21 21 20 21 21 21 21 22 23 24 24 24 23 21 20 19 19 20 22 23 22 21 20 20 20 20 19 19 19 20 21 21 20 20 20 20 21 21 22 21 21 21 21 19 19 20 18 17 17 17 16 16 16 15 15 15 16 16 17 18
3 3 2 4 6 4 3 1 3 6 3 4 6 4 5 3 6 10 11 14 15 14 15 15 15 16 16 16 18 20 21 22 24 24 23 23 22 22 22 22 21 21 21 21 22 23 23 23 23 22 21 20 20 19 19 20 22 22 22 20 20 20 20 20 19 20 20 21 20 20 20 21 22 23 23 24 23 23 23 23 21 21 21 20 19 19 19 18 17 17 17 17 17 17 17 18 19
4 5 3 3 5 5 5 1 4 8 3 3 6 6 9 8 6 11 13 14 16 16 16 16 15 16 16 17 17 18 20 22 24 25 23 23 23 22 23 23 23 23 22 23 23 23 22 23 23 23 22 22 21 21 20 20 20 22 22 22 21 21 22 21 20 21 21 21 20 20 20 21 23 24 25 25 25 25 25 24 23 22 22 21 21 22 21 20 19 18 18 18 18 18 17 18 19
8 9 6 4 5 4 3 2 3 8 4 4 7 7 10 10 7 10 14 16 16 17 16 16 16 17 16 17 19 19 20 22 22 22 23 24 24 23 23 23 23 24 24 24 24 24 24 24 25 24 24 23 22 22 22 22 22 22 22 22 22 22 23 22 21 22 21 21 21 20 20 21 22 24 25 26 25 24 23 22 20 19 20 20 21 23 21 19 19 18 18 18 19 18 18 18 19
6 9 8 6 5 2 2 3 1 3 3 6 8 8 8 9 8 8 13 17 16 16 16 17 18 18 18 18 19 21 22 23 21 20 22 22 23 24 24 24 24 24 26 26 26 26 26 26 26 26 25 24 24 25 25 25 24 24 23 23 23 23 23 23 22 22 22 21 21 21 21 20 21 22 24 24 24 23 21 19 18 17 18 18 19 20 19 19 18 19 18 19 21 21 20 19 18
2 4 6 6 5 2 2 3 2 1 1 5 8 8 9 9 7 9 11 12 14 17 18 19 21 20 20 20 20 21 21 21 20 21 22 22 23 24 25 26 26 26 27 27 28 28 27 27 27 27 26 26 26 26 26 26 26 25 24 23 22 22 22 22 22 22 22 21 20 20 20 20 21 21 22 22 23 22 20 19 18 17 17 17 17 17 16 17 19 20 20 20 22 22 21 20 20
4 1 3 3 3 4 3 2 2 2 1 2 3 3 7 8 7 9 12 13 14 20 21 21 23 22 23 23 22 22 21 20 20 22 23 23 23 23 24 25 26 27 27 28 29 29 29 29 29 29 28 28 28 28 28 27 27 26 25 24 23 22 22 21 21 21 21 21 20 20 19 20 21 21 21 21 21 20 19 19 18 19 19 18 17 16 16 17 19 20 20 21 23 24 23 22 23
1 1 1 1 3 4 1 1 2 1 1 0 4 4 5 6 7 8 15 21 20 20 23 23 23 24 25 25 23 23 22 22 22 22 23 23 23 24 25 25 25 27 28 29 30 30 31 31 30 31 31 30 30 29 29 28 27 27 25 25 24 22 21 20 20 21 22 22 22 21 20 20 20 19 20 21 20 19 20 20 19 20 22 20 18 16 16 17 18 19 20 21 22 24 24 23 24
2 2 0 0 3 4 2 3 4 0 1 1 2 5 5 6 9 9 13 20 20 21 22 23 25 26 25 24 23 23 23 23 24 24 24 24 24 25 26 26 25 26 28 30 31 32 32 33 32 33 33 33 32 31 30 29 29 27 26 25 24 23 22 22 22 22 23 23 22 21 20 20 19 19 19 19 19 19 20 20 19 20 23 23 20 17 17 18 18 18 18 19 21 23 23 24 26
3 3 2 0 2 7 7 5 4 2 2 2 2 1 6 5 8 10 8 10 14 17 18 19 24 24 23 25 26 25 24 23 23 23 24 25 25 26 26 27 27 27 27 27 29 30 32 33 33 34 34 34 34 33 31 31 30 29 29 28 27 27 26 26 25 24 23 22 22 21 19 18 18 19 20 19 17 17 18 19 18 20 23 25 22 20 22 22 20 19 18 20 22 23 24 27 29
3 3 3 3 6 8 7 6 4 2 2 2 2 3 4 5 4 7 4 6 8 9 10 15 21 21 23 27 28 28 28 26 25 24 23 23 24 25 27 28 29 28 27 27 28 29 30 32 32 32 32 33 33 33 32 32 32 31 31 30 29 29 28 26 25 24 22 22 21 20 19 19 18 18 19 17 15 15 16 17 18 19 22 23 23 24 24 23 22 21 22 24 24 25 27 30 32
3 3 1 5 7 7 7 5 2 1 1 1 1 2 2 4 6 6 1 4 5 6 7 12 18 22 24 26 28 28 28 28 28 28 27 27 26 27 28 29 29 28 28 28 29 30 31 32 31 31 31 32 32 32 32 32 33 32 32 31 30 29 28 26 25 24 22 22 21 20 20 20 19 18 17 16 15 15 15 16 18 20 21 21 23 24 23 21 20 21 23 26 28 28 29 32 33
2 3 1 4 5 5 6 4 2 1 3 2 4 2 1 5 6 5 3 4 6 7 9 10 16 22 22 21 20 20 21 23 24 26 27 28 29 29 30 30 31 31 30 30 30 31 32 33 33 34 34 34 33 33 32 32 32 32 32 31 30 28 27 26 25 24 23 21 20 20 21 21 21 20 19 18 18 18 17 17 18 20 20 19 21 23 22 21 21 22 24 26 29 31 31 32 32
3 3 3 6 5 4 3 2 3 2 1 3 5 4 2 5 5 4 4 5 7 8 8 4 7 14 16 15 14 14 16 17 17 19 20 22 24 25 26 28 30 31 31 31 31 32 33 35 35 36 36 36 35 35 34 33 32 32 32 31 30 28 27 26 26 25 24 22 20 20 21 21 21 21 20 19 19 20 19 17 17 18 18 19 22 24 23 22 22 23 25 27 30 31 30 30 30
7 4 5 7 5 5 4 1 4 3 2 4 4 4 3 3 5 5 4 4 5 5 3 1 5 9 10 10 10 9 10 10 12 13 15 17 18 20 22 23 25 27 28 29 29 30 31 32 32 32 33 34 35 35 35 34 33 33 33 31 30 28 27 26 26 26 24 22 21 20 20 19 19 19 19 19 18 17 17 16 17 18 19 20 23 23 22 22 22 23 25 27 28 28 28 28 30
5 4 5 5 3 4 4 3 4 1 4 3 3 2 2 3 6 3 3 2 3 2 3 4 6 7 8 7 6 4 4 5 8 10 13 15 16 19 21 22 23 23 24 26 26 26 26 25 25 26 27 30 32 34 35 35 34 33 32 31 29 28 26 26 26 25 24 22 21 20 19 18 17 17 17 16 15 14 14 15 16 18 19 19 20 20 21 22 23 24 26 26 26 27 28 29 30
2 4 6 5 2 2 1 0 1 2 4 3 3 4 0 5 7 6 7 6 4 4 4 8 9 9 8 7 5 2 3 5 6 6 9 11 13 16 17 18 19 20 22 24 24 22 20 19 20 21 22 25 28 31 33 34 34 33 31 30 28 27 26 26 25 24 22 22 21 20 20 18 17 17 16 15 14 13 13 14 15 16 17 18 19 20 21 23 24 25 27 27 28 28 29 30 31
3 5 6 5 4 2 2 3 2 3 2 3 4 2 2 4 5 8 13 10 5 6 5 8 10 10 9 8 5 4 4 4 4 3 4 4 6 7 9 10 12 14 17 19 19 17 16 17 18 18 18 19 22 25 28 30 31 30 29 27 27 26 26 26 24 23 22 21 21 19 18 18 17 17 16 14 13 13 14 14 15 15 16 17 19 20 21 23 24 25 26 27 28 28 28 29 30
4 3 5 4 4 4 4 3 2 3 1 3 3 1 3 3 3 6 8 5 5 6 5 7 9 10 10 10 9 7 6 3 2 2 2 2 2 3 4 5 6 8 11 13 14 15 15 15 15 14 15 15 17 18 21 24 26 27 26 25 25 25 24 23 22 22 21 20 18 17 17 16 15 14 12 11 11 12 13 14 14 15 16 17 18 20 21 22 23 23 24 24 25 26 28 29 30
3 2 4 2 3 4 3 2 3 4 2 1 2 2 4 5 4 7 6 4 5 5 5 7 9 11 12 11 9 7 6 4 2 2 3 4 3 4 4 4 5 6 8 9 11 11 12 12 12 12 11 11 12 13 15 17 21 23 23 23 23 23 22 21 21 21 19 17 15 15 14 13 12 11 10 10 11 11 12 12 13 14 16 17 18 19 20 20 21 21 22 22 23 23 25 26 28
1 2 3 4 3 6 5 0 0 3 0 2 3 3 5 3 5 9 7 5 4 3 4 7 8 8 8 8 7 8 7 4 3 3 4 4 4 4 4 4 5 5 6 7 8 8 9 9 10 9 9 9 9 10 12 15 17 19 20 20 20 20 19 19 18 17 15 14 13 13 12 11 10 10 10 10 10 10 10 10 11 13 14 16 16 17 18 18 19 20 20 21 22 22 23 24 25
4 3 5 4 2 3 3 1 1 1 2 3 4 5 4 2 4 6 1 4 5 5 6 7 9 9 8 7 9 10 7 5 5 4 4 4 4 4 5 5 6 6 7 7 7 8 8 9 9 8 8 8 9 9 11 13 14 15 15 16 16 16 16 15 14 14 13 12 12 12 11 10 9 9 9 8 8 9 10 11 12 13 13 14 15 15 16 18 19 20 20 21 22 23 24 25 25
2 3 3 3 2 1 2 3 2 2 3 3 3 6 4 4 4 2 0 5 7 6 6 6 8 11 10 8 11 11 8 7 7 6 6 5 4 5 5 6 7 7 7 7 8 8 9 9 8 8 9 9 9 9 9 10 11 11 12 13 13 13 13 13 13 13 12 12 12 11 10 9 8 8 8 8 9 10 11 12 13 14 14 15 15 16 16 17 18 20 21 22 23 23 24 25 24
2 2 2 2 1 3 3 3 3 3 3 3 3 3 4 5 6 6 7 7 7 7 5 5 6 8 9 11 13 12 9 9 9 8 7 6 5 5 5 6 6 7 7 8 8 9 9 9 9 9 10 10 10 10 10 11 11 11 12 12 12 13 13 13 12 12 12 11 10 9 8 8 7 8 9 9 10 11 11 12 13 14 15 15 16 16 16 17 18 19 21 22 23 23 24 24 23
2 3 4 2 1 2 1 2 2 4 3 3 3 3 5 6 5 7 9 6 6 8 6 5 7 8 9 12 14 12 10 10 9 9 8 7 7 7 6 7 6 7 7 7 8 8 8 9 9 10 11 11 11 11 11 11 11 11 12 12 12 11 11 11 10 11 10 9 8 7 7 8 9 9 10 10 11 12 13 14 14 14 15 16 16 16 16 17 18 19 20 21 22 23 23 24 23
4 4 7 7 5 4 2 2 2 3 3 3 4 3 5 5 2 2 6 5 5 8 8 8 9 9 11 13 14 13 11 11 10 9 9 8 8 8 8 8 7 7 7 7 8 8 8 9 9 10 11 11 11 11 10 11 11 11 11 11 11 10 10 10 10 10 9 7 7 8 8 9 10 11 11 11 12 13 13 14 15 15 15 15 15 15 15 17 18 19 20 21 22 22 23 23 24
Wind_Direction
265 261 262 286 299 297 295 287 281 248 222 266 166 116 76 82 107 106 115 139 101 74 71 83 81 60 48 37 77 75 52 51 64 62 121 138 137 136 155 167 168 161 150 141 144 141 137 122 113 100 84 73 66 62 67 85 96 110 119 106 101 100 92 85 74 62 53 50 49 48 49 51 56 63 65 62 62 62 58 59 60 62 66 68 70 70 70 71 72 72 74 78 83 89 93 95 99
257 256 250 279 284 278 296 256 248 258 218 238 82 88 110 113 132 125 139 137 100 112 107 97 89 64 74 88 81 71 55 58 89 105 120 138 137 148 160 155 156 155 143 142 145 140 141 126 118 106 90 77 68 65 72 88 98 111 119 107 102 101 96 86 77 64 51 50 51 49 48 50 56 61 62 63 63 60 57 59 64 65 63 67 68 68 68 68 69 70 70 74 79 82 84 85 91
235 233 209 201 272 259 286 275 240 273 244 197 84 103 134 132 132 118 105 100 107 123 119 110 112 66 64 108 67 67 78 72 98 113 123 141 140 147 150 144 148 143 139 145 143 142 145 132 123 110 97 82 73 69 74 90 102 111 120 113 107 105 100 90 83 71 54 48 50 50 48 50 54 58 61 65 65 58 56 59 63 62 62 67 68 67 68 68 69 70 70 71 75 78 80 81 85
217 204 182 169 268 248 261 253 220 266 281 93 101 154 150 111 94 90 97 104 117 128 128 134 129 52 21 56 62 81 98 87 113 123 128 148 144 140 142 141 143 138 142 145 142 144 146 139 127 114 101 88 78 75 76 89 102 110 122 122 113 109 105 96 89 78 63 50 48 49 47 50 52 58 66 72 74 66 59 60 60 59 63 66 67 67 66 68 70 72 73 73 75 77 80 82 84
216 197 179 167 249 263 262 264 246 265 317 28 108 165 133 106 100 96 106 111 125 132 140 160 128 91 58 44 47 84 99 100 123 127 134 155 150 141 140 142 144 139 141 146 147 146 149 146 131 118 105 95 86 81 78 86 98 106 116 127 118 111 111 103 96 86 73 60 47 42 45 49 50 57 67 77 85 83 75 71 66 61 63 62 64 69 66 68 70 71 73 74 76 77 80 83 85
215 205 195 194 255 300 303 270 258 248 347 11 95 137 115 107 113 109 110 111 124 137 150 172 132 122 101 65 78 98 112 114 124 134 145 154 155 147 140 145 150 138 143 160 156 149 153 150 136 121 110 103 95 88 81 84 94 101 107 124 125 117 117 110 104 96 84 72 42 36 46 48 48 54 63 76 87 88 82 80 77 70 69 64 64 70 70 70 71 73 75 76 77 77 81 84 88
197 201 202 220 253 273 272 255 259 201 340 4 86 109 105 108 119 116 113 111 111 150 164 173 151 131 114 110 101 101 116 127 140 155 159 154 158 147 137 149 154 140 150 173 159 152 158 154 143 122 117 110 102 97 87 85 92 99 103 119 129 122 120 116 110 104 97 78 42 40 48 48 51 54 61 76 85 80 70 77 85 84 81 69 62 68 74 75 75 77 78 79 79 79 81 85 90
201 221 208 206 228 199 252 257 264 128 356 13 65 55 107 121 130 127 133 143 149 176 178 177 179 174 122 120 103 116 129 141 167 170 162 156 159 145 138 152 152 143 159 178 158 154 160 156 148 125 124 115 109 106 95 89 92 100 103 116 129 125 123 122 118 115 105 73 47 46 49 52 55 56 62 76 89 88 80 83 94 96 88 73 66 70 74 76 77 78 80 81 80 80 81 85 88
221 253 227 202 229 193 241 252 239 109 116 95 74 60 111 135 140 135 153 146 151 169 172 183 200 203 126 108 98 137 141 153 180 168 159 158 160 149 139 150 154 152 166 177 158 156 163 159 151 131 128 121 118 114 105 95 92 101 104 111 120 120 123 126 125 122 100 57 47 48 51 57 59 63 69 73 86 99 100 95 93 91 84 78 74 71 70 71 73 74 78 81 80 80 80 82 84
245 244 233 215 250 199 220 253 225 100 101 93 96 104 118 143 146 143 153 130 143 154 157 174 194 172 129 110 110 142 150 162 178 165 162 160 159 148 138 152 161 158 169 179 165 161 165 161 153 138 133 130 126 121 114 103 96 99 104 107 108 110 114 117 118 111 92 67 62 60 60 62 63 71 78 78 81 89 92 88 85 82 78 77 73 70 69 69 70 71 76 81 83 82 80 82 84
256 225 228 246 253 220 210 226 159 106 109 94 101 130 134 151 150 149 146 129 145 131 139 165 170 186 134 109 121 149 162 166 176 166 163 162 156 145 140 158 163 161 176 177 167 165 167 165 155 143 140 136 132 129 123 114 106 98 101 106 106 107 107 108 107 101 93 80 74 68 65 64 66 74 85 88 84 87 92 91 85 81 77 76 74 73 72 71 71 73 77 82 86 85 83 84 85
275 219 203 219 239 229 230 214 133 105 120 126 120 145 153 155 157 158 138 132 149 131 157 183 161 183 144 104 134 161 167 161 171 168 163 162 153 143 146 163 160 165 184 175 164 165 170 169 157 148 146 141 134 133 132 125 118 107 101 103 106 109 106 105 100 96 90 82 76 70 67 64 67 75 89 95 87 91 98 98 92 86 82 79 80 78 75 73 72 74 78 83 88 89 86 85 86
266 266 181 223 253 233 265 5 105 103 135 148 136 156 161 157 169 164 138 141 160 148 176 189 172 183 119 101 140 160 159 158 166 169 165 163 156 147 153 168 160 170 185 175 167 165 170 172 162 155 150 146 137 134 137 133 127 120 110 105 106 106 104 104 98 94 89 85 80 72 71 68 69 76 91 99 93 92 94 98 96 91 88 85 85 82 79 75 73 75 77 81 85 89 89 88 88
254 293 285 224 272 254 151 60 108 128 162 127 128 152 158 159 176 166 148 150 159 149 157 173 184 179 120 115 149 162 157 164 167 168 169 165 161 151 158 171 162 176 181 171 175 167 167 172 167 162 158 152 143 138 140 139 136 130 124 117 110 105 102 101 98 95 91 88 83 79 77 75 77 82 92 100 100 98 94 98 101 96 92 88 85 83 81 76 74 73 74 78 80 84 88 90 90
265 303 301 232 278 269 20 75 145 160 138 111 135 151 149 154 173 159 143 127 114 133 146 176 198 157 116 128 169 173 166 171 170 170 171 165 163 156 164 171 162 181 180 168 179 172 168 170 168 169 167 161 152 146 145 146 148 143 138 131 122 113 107 104 101 98 96 93 89 86 84 84 85 90 97 101 104 104 102 104 104 100 95 88 84 80 78 75 74 72 72 75 78 81 85 91 93
268 305 300 261 263 241 261 117 146 160 132 128 149 151 141 141 157 135 84 97 115 146 146 183 194 116 61 96 160 177 173 173 172 171 169 165 166 163 169 170 164 184 181 170 179 175 172 172 169 173 173 169 165 161 158 159 158 156 149 142 138 128 119 114 110 106 102 98 98 95 90 90 91 96 102 106 112 113 112 112 109 105 99 90 81 77 75 73 72 71 70 72 76 82 86 91 95
264 298 274 260 236 187 191 193 131 138 121 135 156 153 145 136 155 160 106 105 129 152 138 141 176 163 101 115 153 176 176 175 175 169 165 169 171 169 172 169 169 185 181 171 178 177 175 179 176 176 178 176 180 176 172 177 174 170 162 153 150 147 141 131 124 118 111 105 103 100 97 94 95 101 103 108 119 123 124 122 119 113 102 92 80 74 72 71 69 69 69 70 73 79 88 94 99
243 235 233 247 237 199 185 167 124 135 132 145 163 161 154 147 162 172 158 149 145 145 155 166 178 186 139 135 156 172 181 180 177 172 172 178 176 173 173 170 176 189 185 172 177 184 178 182 185 183 184 182 188 190 184 188 191 189 183 177 169 165 163 151 144 133 126 118 107 109 110 99 100 107 102 107 120 129 134 132 131 125 114 103 89 80 73 71 68 68 66 66 69 71 81 87 98
214 203 238 251 264 329 79 89 80 115 141 151 159 171 173 162 168 170 176 181 172 169 182 182 175 176 160 156 169 179 188 184 181 180 182 185 181 179 177 175 181 189 191 178 178 191 185 182 186 187 190 189 192 196 193 195 202 205 204 202 193 187 187 176 166 154 147 135 121 120 109 90 92 99 99 114 126 133 140 141 141 139 138 132 117 97 80 74 66 64 58 52 57 64 75 77 88
218 218 266 247 209 31 52 79 71 99 136 146 150 176 181 151 159 169 190 186 180 200 193 181 180 185 180 175 184 188 189 189 186 186 190 190 183 184 184 182 184 188 194 186 182 192 190 186 188 189 193 197 199 200 200 203 208 213 213 210 207 204 206 201 185 176 169 157 158 126 107 93 86 92 98 118 131 139 148 155 157 158 163 165 156 128 90 84 61 51 40 27 22 30 48 54 59
217 206 230 283 228 63 60 83 84 101 132 143 145 165 165 141 155 170 192 194 184 213 207 195 191 195 193 187 195 196 190 191 190 189 193 192 185 186 191 191 189 188 193 190 187 193 193 192 192 192 197 201 204 206 204 206 213 219 218 212 211 209 213 219 206 196 189 172 182 145 127 140 111 107 107 114 138 159 169 178 187 189 192 207 199 175 162 104 31 12 8 351 341 3 14 13 5
249 239 242 5 359 53 75 94 99 101 128 136 138 157 157 145 164 176 192 214 168 203 209 203 196 200 204 195 198 200 194 195 194 193 195 195 192 189 190 195 195 191 193 193 192 196 196 196 195 195 201 204 207 212 210 210 214 218 221 222 219 214 213 223 222 214 208 187 197 182 148 162 142 136 133 129 154 168 184 202 215 210 199 224 244 224 222 251 276 305 332 317 316 351 8 355 340
239 254 226 37 26 67 80 113 106 96 122 130 143 165 155 151 179 189 207 222 124 141 180 180 186 198 205 199 198 200 199 201 200 199 199 199 199 195 189 195 202 198 199 200 197 199 198 198 198 199 204 207 206 210 214 215 218 219 222 226 229 232 226 225 227 223 220 206 208 211 186 192 183 161 160 173 172 166 192 214 233 236 219 225 251 254 250 262 271 279 294 302 316 337 344 337 330
218 259 160 73 62 80 91 136 122 105 114 117 148 160 151 167 190 192 214 221 159 134 162 166 174 186 196 198 197 202 205 205 206 205 204 203 204 200 192 197 208 207 208 209 204 205 206 202 201 205 207 209 207 207 212 216 219 219 221 225 228 238 239 232 231 229 227 216 215 220 212 213 215 198 186 191 194 193 205 220 237 255 255 245 252 262 266 272 278 285 290 299 311 314 314 317 318
222 257 101 104 84 92 101 124 131 123 126 120 136 145 143 174 186 189 215 218 210 230 205 176 175 173 188 199 199 203 209 208 208 207 204 204 205 202 195 195 207 214 217 216 212 212 217 211 205 211 213 213 212 209 213 217 218 218 221 224 226 235 241 238 237 236 234 224 220 224 220 218 225 225 213 208 211 213 213 224 235 248 260 263 261 264 268 269 273 279 284 290 293 294 296 301 306
220 192 112 112 101 111 100 103 128 123 153 141 134 147 124 166 197 233 230 221 215 224 212 188 177 174 188 204 209 209 213 211 210 210 207 205 204 204 200 195 199 213 222 220 217 216 222 220 211 214 219 218 216 213 215 220 222 221 224 227 228 234 240 241 240 242 241 232 225 229 229 225 232 237 232 226 224 225 221 225 238 244 253 265 268 269 268 266 268 272 276 280 282 286 289 292 297
191 137 109 108 106 117 113 103 128 121 143 155 154 158 111 346 198 255 239 214 208 213 208 201 192 187 192 204 216 216 216 216 216 215 212 209 206 208 208 203 198 205 218 221 220 220 225 227 220 217 221 222 221 219 217 220 226 227 229 231 232 236 237 238 240 244 245 239 230 231 233 231 233 239 241 239 233 233 233 230 239 246 252 260 265 269 270 269 270 272 276 279 280 282 284 287 291
121 125 103 110 110 109 125 114 141 142 135 172 176 99 105 57 184 237 219 195 203 206 203 208 206 205 202 203 212 215 216 218 218 217 217 216 213 213 214 212 205 201 211 219 222 223 227 230 227 222 221 220 222 226 223 221 226 229 232 235 237 238 238 236 237 241 244 241 235 234 234 232 233 237 242 245 243 241 239 236 241 247 252 258 262 267 271 272 270 274 278 279 280 281 283 287 291
141 149 112 134 135 131 163 141 159 174 160 174 150 34 171 154 221 229 209 192 202 202 202 208 210 209 207 208 208 212 215 215 216 218 222 224 222 221 221 222 217 210 213 219 223 225 229 233 232 227 223 221 221 227 228 225 226 229 233 238 241 241 240 240 238 241 244 241 237 237 235 231 233 237 239 245 249 248 244 241 243 247 252 256 259 264 269 269 268 272 277 278 278 281 285 288 292
166 201 205 145 157 205 175 144 156 165 159 174 155 334 227 218 228 223 206 200 199 197 202 205 212 209 205 209 210 215 215 213 218 222 224 227 228 227 226 227 227 223 221 222 225 227 231 235 238 234 228 225 223 226 229 229 229 231 234 238 242 244 243 243 242 243 245 243 238 239 239 235 236 237 239 245 249 250 249 247 247 249 253 256 259 263 266 265 266 270 274 276 276 280 284 286 290
169 208 248 172 162 187 161 144 159 154 161 181 164 236 249 260 221 200 193 201 195 196 202 203 213 213 207 208 210 218 221 219 224 228 228 230 232 232 229 228 228 228 226 225 227 230 233 235 240 239 234 231 229 227 228 232 234 233 235 237 241 246 247 246 245 245 246 247 243 240 240 239 240 240 241 246 249 251 251 251 250 251 253 258 261 262 263 265 268 270 272 275 276 280 285 287 290
180 175 221 209 179 163 148 161 172 156 161 186 176 233 252 300 132 167 182 192 194 201 205 205 212 213 211 210 210 216 222 225 227 231 233 232 234 234 232 230 228 227 226 227 228 231 233 234 238 240 237 234 234 231 228 231 234 235 236 238 243 247 248 248 247 247 248 249 248 245 241 239 241 243 245 248 251 253 253 252 252 252 255 258 261 260 260 264 268 270 273 276 278 282 285 287 290
215 186 176 197 200 168 166 232 199 160 135 193 218 255 244 201 156 176 183 189 199 208 212 210 209 211 212 212 216 219 222 226 228 230 232 233 233 234 234 232 230 229 226 226 228 229 231 233 234 237 239 237 237 236 232 230 233 237 238 239 243 246 247 248 249 250 251 250 251 249 245 241 240 242 245 249 252 254 256 256 254 254 257 258 258 259 259 263 267 270 274 278 279 282 284 286 288
200 190 218 209 196 168 158 260 225 183 162 208 220 248 259 230 179 188 197 199 202 211 220 218 213 212 212 213 219 223 224 227 230 231 230 232 233 234 235 234 233 231 228 227 228 230 231 232 234 236 239 239 238 237 236 235 233 234 236 238 241 245 249 249 248 250 252 253 254 253 249 244 240 241 244 247 250 253 256 259 257 257 259 259 258 260 261 263 267 272 277 280 280 280 282 284 285
166 176 231 217 195 197 178 169 185 176 195 226 192 223 253 252 200 194 204 199 197 207 219 223 221 216 215 217 220 225 228 229 235 236 232 232 233 234 236 235 235 233 230 228 229 230 230 231 234 235 237 238 238 239 239 239 235 232 232 233 236 242 249 249 248 250 253 255 257 258 256 249 243 242 245 248 250 253 255 259 261 261 262 262 262 262 262 262 266 272 277 281 282 280 278 279 282
176 173 195 193 192 217 158 112 169 162 173 226 205 219 240 247 234 207 198 194 197 204 210 219 224 223 221 223 227 229 232 234 238 241 239 236 233 234 236 236 236 235 233 232 231 231 230 232 233 233 235 237 237 239 239 238 237 234 233 233 234 238 247 253 254 254 255 257 258 259 259 255 248 244 244 246 247 250 253 257 261 262 263 263 263 264 266 265 265 267 273 279 282 279 274 272 276
188 170 192 194 176 195 114 96 196 172 170 216 224 234 246 247 246 231 202 192 198 201 202 211 217 221 221 221 227 231 236 238 238 239 241 240 237 234 234 235 235 235 235 234 233 234 233 234 236 235 236 237 238 238 239 240 240 240 239 239 240 241 246 253 257 259 261 262 263 262 260 260 257 252 249 246 245 246 248 251 253 256 261 265 267 269 269 265 260 260 267 275 279 276 272 271 274
315 161 184 192 171 150 65 83 186 188 106 223 226 233 249 248 248 256 227 199 200 201 200 208 213 218 222 222 226 232 237 239 236 235 237 238 240 237 235 234 233 234 235 235 235 236 237 238 240 241 240 241 242 242 243 244 245 247 248 250 250 249 251 255 259 264 266 267 266 265 262 263 260 257 255 249 244 243 242 244 249 255 260 267 272 271 267 261 258 260 264 270 275 276 275 276 277
343 35 150 186 168 117 65 57 141 138 107 266 276 249 253 257 250 248 241 232 226 214 210 214 215 217 221 223 227 232 235 236 235 236 236 237 240 240 238 236 235 235 236 238 238 238 239 240 241 243 243 243 244 246 246 247 249 250 251 252 252 252 255 257 259 262 265 266 266 266 264 263 261 256 254 251 245 238 237 241 249 256 259 265 270 267 263 262 261 265 268 270 272 275 279 282 284
356 354 102 169 154 122 148 204 148 159 184 15 354 320 274 270 269 255 239 239 239 231 226 226 223 222 223 225 228 232 233 234 235 237 239 240 240 240 238 238 238 238 238 238 238 238 239 239 240 242 245 246 246 247 248 250 250 250 250 251 251 251 253 254 255 258 262 265 266 267 266 265 264 260 258 257 249 237 235 240 246 255 259 265 266 261 262 267 268 270 273 273 273 276 281 285 289
248 230 122 206 157 115 90 151 149 98 319 89 17 323 289 238 235 249 239 232 234 232 227 227 229 228 227 227 228 230 233 235 236 237 239 242 242 241 240 241 240 240 239 239 239 239 240 240 241 244 247 248 248 247 248 249 248 246 245 244 243 245 245 245 248 253 259 266 270 270 269 267 265 263 263 263 256 243 239 239 241 250 258 262 261 257 263 270 271 272 273 272 273 277 283 287 288
232 207 167 13 119 112 104 137 144 87 281 249 117 319 291 249 221 238 230 216 226 225 218 220 225 224 223 224 225 226 229 231 233 234 236 240 243 244 243 242 241 241 241 241 242 242 243 244 244 245 247 248 248 247 246 246 245 245 245 242 242 243 245 248 252 256 259 265 272 273 270 264 260 259 261 265 262 252 248 247 245 247 254 258 256 255 261 264 267 270 274 276 276 281 285 286 285
214 231 191 119 98 109 124 152 154 131 223 257 109 163 270 314 293 267 212 175 216 222 214 222 225 224 224 226 228 228 228 228 228 228 230 234 240 243 244 244 243 243 243 243 243 243 244 245 245 246 247 248 248 247 245 244 244 244 245 246 246 248 250 254 259 261 263 263 266 268 267 261 256 257 260 262 260 254 250 248 246 245 249 254 255 257 259 260 263 267 270 274 277 280 282 283 285
205 282 311 118 114 125 144 153 164 173 128 4 359 167 252 297 287 281 182 158 224 227 222 228 227 228 231 233 236 235 234 234 232 232 232 234 237 241 245 248 248 247 245 242 242 243 245 246 247 247 247 247 247 247 246 244 244 245 245 245 246 248 251 253 256 258 261 262 260 260 262 262 262 262 263 263 260 258 251 243 241 243 245 251 256 260 261 260 262 265 270 277 278 277 277 280 281
224 269 2 104 112 128 145 150 164 103 66 329 268 201 254 273 257 251 203 198 241 237 231 232 226 224 223 223 226 228 230 233 234 236 237 238 239 240 242 246 249 249 247 245 243 243 245 246 247 246 245 245 244 245 244 244 244 244 244 245 245 247 248 249 252 254 256 256 254 252 254 259 264 266 268 267 263 260 256 248 245 245 248 254 260 264 264 261 262 267 274 280 277 275 278 280 280
193 197 72 72 71 71 98 148 142 96 67 246 230 186 199 278 261 219 195 218 237 236 236 236 204 196 192 192 200 211 220 226 231 235 238 240 241 242 242 242 245 247 248 247 244 244 245 246 246 246 245 244 242 242 242 242 242 242 242 243 244 245 245 246 249 253 255 254 248 245 245 250 256 261 264 264 259 257 255 254 253 255 259 264 268 269 267 265 266 268 271 272 272 273 276 277 277
139 140 86 66 48 42 39 44 82 81 264 251 224 184 165 283 269 208 186 223 230 229 229 95 108 141 158 175 188 204 219 227 234 237 241 244 245 246 245 243 242 243 245 245 244 243 244 246 247 247 246 245 243 241 240 240 240 240 240 241 242 243 243 245 247 252 257 255 248 245 246 246 247 250 254 253 251 250 251 254 257 261 264 265 267 271 274 276 275 273 271 271 273 275 276 276 277
114 118 113 79 32 33 27 9 52 101 244 270 311 339 113 228 261 234 201 213 182 169 156 137 131 136 147 165 175 198 241 255 250 247 246 246 245 246 246 243 240 238 238 239 240 240 241 243 246 247 245 244 242 240 238 237 237 236 237 237 239 242 243 245 247 250 254 252 249 250 252 253 252 252 253 251 249 249 253 260 264 268 272 274 277 282 285 285 285 283 282 281 281 281 281 280 280
92 126 125 105 80 57 50 240 112 211 239 262 300 342 296 231 256 262 269 268 209 185 154 140 144 144 148 164 173 207 283 287 271 254 245 243 242 243 245 244 241 236 232 233 234 235 236 237 239 241 242 242 241 239 236 234 234 234 234 235 238 242 245 245 246 248 247 245 245 249 253 256 258 258 258 259 263 270 276 279 280 281 283 285 287 289 290 291 291 291 292 291 289 287 286 285 286
178 150 140 136 135 131 192 201 197 216 254 298 279 292 268 269 275 248 254 260 209 175 163 150 154 157 166 187 212 252 272 283 281 252 230 229 231 233 237 237 234 229 225 226 227 227 228 229 231 233 236 238 239 238 236 234 234 234 234 236 238 241 242 243 244 244 242 242 245 249 252 254 257 258 260 264 272 279 282 282 284 284 285 287 290 292 294 294 294 294 294 294 294 293 293 294 295
193 159 138 155 164 163 182 180 177 194 212 324 299 265 194 221 261 236 236 226 170 174 202 198 198 203 208 229 250 253 244 251 263 226 184 169 175 183 197 204 205 208 210 212 216 220 223 224 225 228 230 232 234 236 235 233 233 233 232 233 234 236 237 239 241 240 240 243 247 249 251 254 256 259 262 264 265 265 268 272 277 282 286 291 294 296 297 296 296 296 297 298 300 301 300 300 301
219 132 116 187 200 144 135 161 167 149 111 305 261 245 217 212 264 268 246 204 178 192 225 226 228 230 228 240 248 226 213 224 215 182 161 157 163 162 168 175 180 187 194 200 206 211 215 217 219 224 226 229 231 231 231 229 228 229 228 228 229 232 234 234 235 238 241 245 247 250 251 252 252 252 253 254 254 256 261 268 276 285 290 293 295 295 294 295 294 296 299 301 303 302 300 301 302
178 111 154 201 165 115 112 173 27 102 155 237 188 247 279 287 294 279 245 202 180 182 229 226 218 221 220 216 206 195 199 203 187 173 163 160 159 154 153 154 161 169 176 185 193 197 202 208 213 215 215 217 219 221 222 223 224 226 227 227 228 229 230 230 231 235 239 241 242 244 245 244 241 242 245 250 260 270 275 280 284 287 288 288 290 292 293 295 298 301 304 306 308 308 306 307 308
117 153 192 174 88 85 119 148 21 79 243 246 176 211 264 264 275 298 262 178 195 199 213 208 191 197 209 197 185 190 194 183 175 172 168 162 148 140 138 139 146 154 160 168 177 183 190 197 199 199 202 208 211 215 218 221 224 226 226 225 224 224 223 224 226 229 231 231 232 234 236 239 240 243 252 264 279 290 292 294 293 291 292 294 297 299 300 304 307 310 313 314 316 317 316 318 318
120 174 182 122 116 196 151 166 182 167 213 264 237 218 226 206 220 282 235 201 209 201 197 189 184 199 211 197 182 188 190 181 178 176 177 174 156 144 138 141 146 150 154 161 169 176 183 190 191 188 194 199 202 207 210 214 216 215 216 215 215 215 214 216 220 220 221 222 224 227 231 239 247 257 271 281 286 289 290 292 297 301 305 307 309 310 311 312 314 317 319 319 319 318 317 319 318
25 74 75 57 132 169 165 183 180 148 181 246 275 236 236 230 210 207 222 217 186 174 184 186 185 197 203 189 180 184 188 184 181 179 183 184 176 166 154 153 154 153 158 164 170 176 182 187 188 185 189 192 193 196 197 200 202 202 204 205 206 208 208 209 212 212 217 221 223 227 233 245 261 271 277 282 286 291 293 296 300 304 307 309 312 315 316 317 319 321 321 321 320 319 318 319 318
159 131 152 166 123 117 117 238 176 135 167 218 244 257 260 247 213 197 212 211 156 152 163 171 166 165 172 174 176 182 186 186 185 183 188 192 190 188 177 170 167 163 169 173 176 182 186 189 191 190 191 191 192 194 194 195 196 196 199 199 200 202 201 203 207 212 218 222 225 236 250 263 271 274 279 287 293 297 300 301 304 306 308 311 314 317 319 321 323 322 322 322 321 320 319 319 319
179 178 178 180 169 132 124 243 214 154 171 189 191 251 273 258 265 161 175 173 150 153 159 162 160 160 168 172 178 186 188 191 193 189 194 200 198 197 191 184 180 177 182 186 188 194 197 197 198 198 197 195 195 194 192 191 191 192 193 193 194 195 196 202 207 213 221 229 241 255 265 270 275 280 287 292 295 298 300 303 306 307 311 314 318 321 323 325 323 320 320 320 319 318 318 317 317